Hourly Data Report for October 05, 2017

All times are specified in Local Standard Time (LST). Add 1 hour to adjust for Daylight Saving Time where and when it is observed.

POWELL RIVER
BRITISH COLUMBIA

49°50'04.400" N
124°29'48.500" W
125.00 m
1046392
71720
VOP

Download Data

Hourly Data (October 2017)
Hourly Data Report for October 5, 2017
Temp Definition
°C
Dew Point Temp Definition
°C
Rel Hum Definition
%
Wind Dir Definition
10's deg

Wind Spd Definition
km/h
Visibility Definition
km
Stn Press Definition
kPa
Hmdx Definition


Wind Chill Definition


Weather Definition


TIME
00:00 5.2 4.3 94 LegendMM LegendMM   100.68     LegendNANA
01:00 3.6 3.1 96 LegendMM LegendMM   100.70     LegendNANA
02:00 5.9 5.5 97 LegendMM LegendMM   100.72     LegendNANA
03:00 4.0 3.5 97 LegendMM LegendMM   100.73     LegendNANA
04:00 3.8 3.4 97 LegendMM LegendMM   100.73     LegendNANA
05:00 3.5 3.2 98 LegendMM LegendMM   100.71     LegendNANA
06:00 3.3 3.0 98 LegendMM LegendMM   100.74     LegendNANA
07:00 3.4 3.1 98 LegendMM LegendMM   100.77     LegendNANA
08:00 7.1 6.7 98 LegendMM LegendMM   100.78     LegendNANA
09:00 11.6 9.3 86 LegendMM LegendMM   100.80     LegendNANA
10:00 13.4 8.6 73 LegendMM LegendMM   100.79     LegendNANA
11:00 13.7 8.1 69 LegendMM LegendMM   100.78     LegendNANA
12:00 14.5 7.8 64 LegendMM LegendMM   100.72     LegendNANA
13:00 14.2 7.9 66 LegendMM LegendMM   100.66     LegendNANA
14:00 15.0 7.9 63 LegendMM LegendMM   100.59     LegendNANA
15:00 15.3 6.8 57 LegendMM LegendMM   100.57     LegendNANA
16:00 16.0 6.1 52 LegendMM LegendMM   100.55     LegendNANA
17:00 14.2 5.5 56 LegendMM LegendMM   100.52     LegendNANA
18:00 10.7 6.3 74 LegendMM LegendMM   100.49     LegendNANA
19:00 9.0 6.4 84 LegendMM LegendMM   100.49     LegendNANA
20:00 7.3 4.5 82 LegendMM LegendMM   100.47     LegendNANA
21:00 6.5 4.9 90 LegendMM LegendMM   100.48     LegendNANA
22:00 5.4 4.0 91 LegendMM LegendMM   100.48     LegendNANA
23:00 6.1 5.2 95 LegendMM LegendMM   100.48     LegendNANA

Notes on Data Quality.

Legend

  • E = Estimated
  • M = Missing
  • NA = Not Available
  • ‡ = Partner data that is not subject to review by the National Climate Archives
Date modified: